GW0821 Weather Reports


time (UTC)temp
F
wind
direction
speed
knots
gust
knots
rain 1hr
in
rain 24hr
in
rain mn
in
humidity
%
barometer
mb
20260906023106 67 0 0.0 0.0 0.00 0.00 0.00 67 1021.4
20260906021551 67 0 0.0 0.0 0.00 0.00 0.00 67 1021.4
20260906020101 67 0 0.0 0.0 0.00 0.00 0.00 67 1021.4
20260906014554 67 0 0.0 0.0 0.00 0.00 0.00 67 1021.4
20260906013050 68 0 0.0 0.0 0.00 0.00 0.00 65 1021.5
20260906011553 68 0 0.0 0.0 0.00 0.00 0.00 64 1021.6
20260906004558 68 0 0.0 0.0 0.00 0.00 0.00 66 1021.7
20260906003055 69 0 0.0 0.0 0.00 0.00 0.00 67 1021.8
20260906001551 69 0 0.0 0.0 0.00 0.00 0.00 66 1021.8
20260906000052 69 0 0.0 0.0 0.00 0.00 0.00 66 1021.8
20260905234556 70 0 0.0 0.0 0.00 0.00 0.00 66 1021.9
20260905233056 70 0 0.0 0.0 0.00 0.00 0.00 66 1022.0
20260905231552 70 0 0.0 0.0 0.00 0.00 0.00 66 1022.1
20260905230047 70 0 0.0 0.0 0.00 0.00 0.00 65 1022.3
20260905224553 71 0 0.0 0.0 0.00 0.00 0.00 64 1022.2
20260905223051 71 0 0.0 0.0 0.00 0.00 0.00 65 1022.2
20260905221602 72 0 0.0 0.0 0.00 0.00 0.00 64 1022.2
20260905220056 72 0 0.0 0.9 0.00 0.00 0.00 64 1022.1
20260905214602 73 0 0.0 0.0 0.00 0.00 0.00 64 1022.1
20260905213048 73 0 0.0 2.6 0.00 0.00 0.00 64 1022.1
20260905211555 73 0 0.0 0.0 0.00 0.00 0.00 63 1022.2
20260905210103 74 0 0.0 0.0 0.00 0.00 0.00 62 1022.2
20260905204546 74 0 0.0 0.0 0.00 0.00 0.00 62 1022.2
20260905203053 75 0 0.0 0.0 0.00 0.00 0.00 60 1022.2
20260905201552 76 0 0.0 0.0 0.00 0.00 0.00 59 1022.2
20260905200113 76 0 0.0 0.0 0.00 0.00 0.00 58 1022.1
20260905194548 77 0 0.0 0.0 0.00 0.00 0.00 57 1022.1
20260905193051 78 0 0.0 0.0 0.00 0.00 0.00 56 1022.1
20260905191548 79 0 0.0 0.0 0.00 0.00 0.00 54 1022.1
20260905190054 80 0 0.0 0.0 0.00 0.00 0.00 52 1021.9
20260905184551 81 0 0.0 0.0 0.00 0.00 0.00 50 1021.8
20260905183053 82 0 0.0 0.0 0.00 0.00 0.00 49 1021.7
20260905181554 83 0 0.0 0.0 0.00 0.00 0.00 46 1021.7
20260905180426 84 0 0.9 3.5 0.00 0.00 0.00 46 1021.5
20260905174555 85 0 0.0 5.2 0.00 0.00 0.00 44 1021.4
20260905173112 86 160 1.7 6.1 0.00 0.00 0.00 43 1021.4
20260905171554 88 111 3.5 7.0 0.00 0.00 0.00 42 1021.3
20260905170049 89 137 3.5 7.8 0.00 0.00 0.00 41 1021.1
20260905164602 89 165 2.6 8.7 0.00 0.00 0.00 40 1021.0
20260905163052 90 183 4.3 7.8 0.00 0.00 0.00 39 1020.9
20260905161601 90 157 4.3 9.6 0.00 0.00 0.00 39 1020.9
20260905160100 91 160 3.5 7.0 0.00 0.00 0.00 38 1021.0
20260905154555 91 153 4.3 10.4 0.00 0.00 0.00 38 1020.9
20260905153100 91 166 4.3 11.3 0.00 0.00 0.00 38 1021.0
20260905150055 92 139 5.2 10.4 0.00 0.00 0.00 36 1021.1
20260905144550 93 290 4.3 11.3 0.00 0.00 0.00 35 1021.0
20260905143049 93 154 4.3 12.2 0.00 0.00 0.00 35 1021.2
20260905141559 94 160 4.3 9.6 0.00 0.00 0.00 34 1021.2
20260905140100 93 126 3.5 14.8 0.00 0.00 0.00 34 1021.2
20260905134558 93 191 2.6 10.4 0.00 0.00 0.00 34 1021.2
20260905133050 93 223 3.5 11.3 0.00 0.00 0.00 34 1021.4
20260905131555 93 113 4.3 13.0 0.00 0.00 0.00 34 1021.5
20260905130054 93 196 4.3 10.4 0.00 0.00 0.00 34 1021.5
20260905124601 93 238 4.3 11.3 0.00 0.00 0.00 34 1021.5
20260905123050 93 136 5.2 10.4 0.00 0.00 0.00 33 1021.7
20260905121556 93 222 5.2 10.4 0.00 0.00 0.00 34 1021.6
20260905114608 93 160 3.5 11.3 0.00 0.00 0.00 34 1021.7
20260905113056 93 215 4.3 8.7 0.00 0.00 0.00 34 1021.7
20260905111634 93 158 4.3 10.4 0.00 0.00 0.00 34 1021.7
20260905110046 93 215 3.5 10.4 0.00 0.00 0.00 35 1021.7
20260905104555 93 140 2.6 7.8 0.00 0.00 0.00 35 1021.7
20260905103051 92 179 3.5 7.8 0.00 0.00 0.00 35 1021.9
20260905101549 92 224 2.6 8.7 0.00 0.00 0.00 35 1021.8
20260905100101 92 198 4.3 7.8 0.00 0.00 0.00 34 1021.9
20260905094551 91 269 2.6 7.0 0.00 0.00 0.00 35 1021.9
20260905093107 89 141 0.0 1.7 0.00 0.00 0.00 43 1021.9
20260905091553 86 298 1.7 3.5 0.00 0.00 0.00 47 1022.1
20260905090057 85 241 0.9 3.5 0.00 0.00 0.00 51 1022.0
20260905084554 83 0 1.7 7.0 0.00 0.00 0.00 54 1021.9
20260905083049 82 10 1.7 5.2 0.00 0.00 0.00 55 1022.0
20260905081548 80 99 2.6 7.8 0.00 0.00 0.00 57 1021.9
20260905080049 78 78 1.7 6.1 0.00 0.00 0.00 61 1021.9
20260905074548 76 61 1.7 6.1 0.00 0.00 0.00 65 1021.9
20260905073056 75 41 3.5 6.1 0.00 0.00 0.00 68 1021.9
20260905071552 73 96 0.0 1.7 0.00 0.00 0.00 72 1021.8
20260905070055 71 0 0.0 0.0 0.00 0.00 0.00 73 1021.9
20260905064629 70 0 0.0 0.0 0.00 0.00 0.00 76 1021.8
20260905063058 68 0 0.0 0.0 0.00 0.00 0.00 79 1021.7
20260905061553 67 0 0.0 0.0 0.00 0.00 0.00 80 1021.7
20260905060050 66 0 0.0 0.0 0.00 0.00 0.00 81 1021.6
20260905054551 66 0 0.0 0.0 0.00 0.00 0.00 82 1021.5
20260905053045 65 0 0.0 0.0 0.00 0.00 0.00 83 1021.4
20260905051553 66 0 0.0 0.0 0.00 0.00 0.00 83 1021.3
20260905050056 66 0 0.0 0.0 0.00 0.00 0.00 82 1021.2
20260905044550 66 0 0.0 0.0 0.00 0.00 0.00 82 1021.1
20260905043059 66 0 0.0 0.0 0.00 0.00 0.00 83 1021.0
20260905041558 66 0 0.0 0.0 0.00 0.00 0.00 82 1021.1
20260905040050 66 0 0.0 0.0 0.00 0.00 0.00 82 1021.0
20260905034604 67 0 0.0 0.0 0.00 0.00 0.00 80 1021.0
20260905033059 67 0 0.0 0.0 0.00 0.00 0.00 80 1021.0
20260905031601 67 0 0.0 0.0 0.00 0.00 0.00 80 1020.8
20260905030115 67 0 0.0 0.0 0.00 0.00 0.00 80 1020.8
20260905024552 67 0 0.0 0.0 0.00 0.00 0.00 80 1020.8